Lake Clear, NY

4:47 PM EST on December 09, 2016 (GMT -0500)
Adirondack Regional

Weather History for KSLK - November, 2014

Change the Weather History Date:

Monday, November 17, 2014

  Actual Average Record
Temperature  
Mean Temperature 18 °F 32 °F  
Max Temperature 34 °F 42 °F 62 °F (2006)
Min Temperature 1 °F 22 °F 1 °F (2014)
Degree Days  
Heating Degree Days 48 33  
Month to date heating degree days 495 511  
Since 1 July heating degree days 1698 1803  
Cooling Degree Days 0 0  
Month to date cooling degree days 0 0  
Year to date cooling degree days 83 114  
Moisture  
Dew Point 29 °F    
Average Humidity 85    
Maximum Humidity 100    
Minimum Humidity 69    
Precipitation  
Precipitation 0.58 in 0.11 in 0.80 in (1964)
Month to date precipitation 1.03 1.96  
Year to date precipitation 32.22 33.84  
Sea Level Pressure  
Sea Level Pressure 29.65 in    
Wind  
Wind Speed 5 mph (East)    
Max Wind Speed 16 mph    
Max Gust Speed 27 mph    
Visibility 3 miles    
Events Fog , Rain , Snow    
T = Trace of Precipitation, MM = Missing Value Source: NWS Daily Summary

Daily Weather History Graph

Daily Weather History Graph

Search for Another Location

Airport or City:

Trip Planner

Search our weather history database for the weather conditions in past years. The results will help you decide how hot, cold, wet, or windy it might be!

Date:

Astronomy

Nov. 17, 2014 Rise Set
Actual Time 6:55 AM EST 4:27 PM EST
Civil Twilight 6:23 AM EST 4:59 PM EST
Nautical Twilight 5:48 AM EST 5:34 PM EST
Astronomical Twilight 5:14 AM EST 6:08 PM EST
Moon 1:43 AM EST (11/17) 2:00 PM EST (11/17)
Length of Visible Light 10h 35m
Length of Day
9h 32m
Waning Crescent, 23% of the Moon is Illuminated
Nov 17
Waning Crescent
Nov 22
New
Nov 29
First Quarter
Dec 6
Full
Dec 14
Last Quarter

Hourly Weather History & Observations

Time (EST) Temp. Windchill Dew Point Humidity Pressure Visibility Wind Dir Wind Speed Gust Speed Precip Events Conditions
12:51 AM 30.9 °F 25.2 °F 23.0 °F 72% 29.98 in 10.0 mi SSW 5.8 mph - N/A   Overcast
1:51 AM 30.0 °F 26.5 °F 25.0 °F 82% 29.98 in 3.0 mi SSW 3.5 mph - 0.00 in Snow Light Snow
2:19 AM 30.0 °F - 26.1 °F 85% 29.92 in 2.5 mi Calm Calm - 0.00 in Snow Light Snow
2:34 AM 30.0 °F - 27.0 °F 88% 29.92 in 1.8 mi Calm Calm - 0.00 in Snow Light Snow
2:42 AM 28.9 °F - 27.0 °F 92% 29.92 in 2.0 mi Calm Calm - 0.00 in Snow Light Snow
2:51 AM 28.9 °F - 27.0 °F 92% 29.98 in 2.0 mi Calm Calm - 0.00 in Snow Light Snow
3:06 AM 28.9 °F - 27.0 °F 92% 29.91 in 1.8 mi Calm Calm - 0.01 in Snow Light Snow
3:14 AM 30.0 °F - 28.0 °F 92% 29.90 in 2.0 mi Calm Calm - 0.01 in Snow Light Snow
3:21 AM 30.0 °F - 28.0 °F 92% 29.90 in 1.8 mi Calm Calm - 0.01 in Snow Light Snow
3:33 AM 30.0 °F - 28.0 °F 92% 29.89 in 1.5 mi Calm Calm - 0.02 in Snow Light Snow
3:51 AM 30.0 °F - 28.0 °F 92% 29.94 in 1.2 mi Calm Calm - 0.03 in Snow Light Snow
4:05 AM 30.0 °F - 28.0 °F 92% 29.88 in 1.2 mi Calm Calm - 0.00 in Snow Light Snow
4:35 AM 28.9 °F 25.2 °F 28.0 °F 96% 29.87 in 0.8 mi SSE 3.5 mph - 0.02 in Snow Light Snow
4:42 AM 28.9 °F 23.9 °F 28.0 °F 96% 29.88 in 1.0 mi SSE 4.6 mph - 0.02 in Snow Light Snow
4:51 AM 28.9 °F 23.9 °F 27.0 °F 92% 29.91 in 1.0 mi ESE 4.6 mph - 0.03 in Snow Light Snow
5:07 AM 30.0 °F 26.5 °F 28.0 °F 92% 29.86 in 1.8 mi SE 3.5 mph - 0.00 in Snow Light Snow
5:15 AM 30.0 °F - 28.0 °F 92% 29.85 in 2.0 mi Calm Calm - 0.00 in Snow Light Snow
5:30 AM 30.0 °F - 28.0 °F 92% 29.83 in 4.0 mi Calm Calm - 0.01 in Snow Light Snow
5:40 AM 28.9 °F 23.9 °F 27.0 °F 92% 29.83 in 1.8 mi NE 4.6 mph - 0.01 in Snow Light Snow
5:46 AM 28.4 °F 23.3 °F 26.6 °F 93% 29.82 in 1.8 mi NE 4.6 mph - 0.01 in Snow Light Snow
5:51 AM 28.9 °F 23.9 °F 27.0 °F 92% 29.88 in 1.8 mi NE 4.6 mph - 0.01 in Snow Light Snow
6:40 AM 28.9 °F 23.9 °F 27.0 °F 92% 29.79 in 2.0 mi East 4.6 mph - 0.01 in Snow Light Snow
6:51 AM 28.9 °F 25.2 °F 27.0 °F 92% 29.85 in 2.0 mi East 3.5 mph - 0.01 in Snow Light Snow
7:05 AM 30.0 °F 26.5 °F 27.0 °F 88% 29.78 in 3.0 mi ENE 3.5 mph - 0.00 in Snow Light Snow
7:27 AM 28.9 °F 23.9 °F 27.0 °F 92% 29.78 in 2.5 mi ENE 4.6 mph - 0.00 in Snow Light Snow
7:36 AM 28.9 °F 22.8 °F 27.0 °F 92% 29.77 in 4.0 mi East 5.8 mph - 0.00 in   Overcast
7:51 AM 28.9 °F 23.9 °F 28.0 °F 96% 29.83 in 6.0 mi ENE 4.6 mph - 0.00 in   Overcast
8:30 AM 30.0 °F 24.1 °F 28.0 °F 92% 29.75 in 3.0 mi ENE 5.8 mph - N/A   Overcast
8:37 AM 30.0 °F 24.1 °F 28.0 °F 92% 29.73 in 3.0 mi ENE 5.8 mph - 0.00 in   Overcast
8:51 AM 30.0 °F 26.5 °F 28.0 °F 92% 29.78 in 2.5 mi ENE 3.5 mph - 0.00 in Snow Light Snow
9:01 AM 30.0 °F 25.2 °F 28.0 °F 92% 29.72 in 1.5 mi ENE 4.6 mph - 0.00 in Snow Light Snow
9:51 AM 30.0 °F 25.2 °F 28.9 °F 96% 29.74 in 1.5 mi NE 4.6 mph - 0.03 in Snow Light Snow
10:10 AM 30.0 °F 25.2 °F 28.9 °F 96% 29.67 in 0.8 mi ENE 4.6 mph - 0.02 in Snow Light Snow
10:23 AM 30.0 °F 25.2 °F 28.9 °F 96% 29.67 in 0.8 mi East 4.6 mph - 0.03 in Snow Light Snow
10:38 AM 30.9 °F - 28.9 °F 92% 29.66 in 0.5 mi Calm Calm - 0.04 in Fog , Snow Snow
10:51 AM 30.9 °F 26.2 °F 28.9 °F 92% 29.70 in 0.5 mi ENE 4.6 mph - 0.07 in Fog , Snow Snow
11:23 AM 30.9 °F 27.5 °F 28.9 °F 92% 29.60 in 0.5 mi NE 3.5 mph - 0.04 in Fog , Snow Snow
11:51 AM 30.9 °F - 28.9 °F 92% 29.62 in 0.8 mi Calm Calm - 0.07 in Snow Light Snow
12:06 PM 30.9 °F 26.2 °F 28.9 °F 92% 29.56 in 1.2 mi ENE 4.6 mph - 0.01 in Snow Light Snow
12:28 PM 30.9 °F - 30.0 °F 96% 29.54 in 1.2 mi Calm Calm - 0.02 in Snow Light Snow
12:51 PM 30.9 °F 26.2 °F 30.0 °F 96% 29.57 in 1.8 mi NE 4.6 mph - 0.04 in Snow Light Snow
12:58 PM 32.0 °F 27.5 °F 30.0 °F 92% 29.51 in 2.5 mi NE 4.6 mph - 0.01 in Snow Light Snow
1:06 PM 32.0 °F 26.4 °F 30.0 °F 92% 29.51 in 4.0 mi NE 5.8 mph - 0.01 in   Overcast
1:24 PM 32.0 °F 27.5 °F 30.0 °F 92% 29.49 in 1.8 mi ENE 4.6 mph - 0.04 in Snow Light Snow
1:46 PM 32.0 °F 27.5 °F 30.2 °F 93% 29.47 in 3.0 mi NE 4.6 mph - 0.07 in   Overcast
1:51 PM 32.0 °F 28.7 °F 30.0 °F 92% 29.52 in 3.0 mi NE 3.5 mph - 0.07 in   Overcast
1:58 PM 32.0 °F 27.5 °F 30.9 °F 96% 29.47 in 4.0 mi NE 4.6 mph - 0.01 in   Overcast
2:28 PM 32.0 °F 28.7 °F 30.9 °F 96% 29.44 in 4.0 mi NNE 3.5 mph - 0.03 in   Overcast
2:51 PM 32.0 °F - 30.9 °F 96% 29.48 in 3.0 mi Calm Calm - 0.07 in   Overcast
3:24 PM 32.0 °F - 30.9 °F 96% 29.43 in 2.5 mi Calm Calm - 0.05 in   Overcast
3:32 PM 32.0 °F - 32.0 °F 100% 29.42 in 3.0 mi Calm Calm - 0.06 in   Overcast
3:51 PM 32.0 °F 28.7 °F 30.9 °F 96% 29.47 in 4.0 mi East 3.5 mph - 0.07 in   Overcast
4:10 PM 32.0 °F - 32.0 °F 100% 29.41 in 5.0 mi Calm Calm - 0.01 in   Overcast
4:51 PM 32.0 °F - 32.0 °F 100% 29.44 in 7.0 mi Calm Calm - 0.01 in   Overcast
5:20 PM 32.0 °F 28.7 °F 30.9 °F 96% 29.39 in 6.0 mi West 3.5 mph - 0.01 in   Overcast
5:51 PM 33.1 °F 30.0 °F 32.0 °F 96% 29.45 in 7.0 mi SW 3.5 mph - 0.03 in Rain Light Rain
6:18 PM 34.0 °F 27.2 °F 32.0 °F 92% 29.41 in 7.0 mi SW 8.1 mph - 0.01 in   Overcast
6:23 PM 33.1 °F 25.5 °F 32.0 °F 96% 29.41 in 7.0 mi SW 9.2 mph - 0.01 in   Overcast
6:44 PM 33.1 °F 26.9 °F 32.0 °F 96% 29.40 in 5.0 mi SSW 6.9 mph - 0.02 in Snow Light Snow
6:51 PM 33.1 °F 28.7 °F 32.0 °F 96% 29.45 in 5.0 mi SW 4.6 mph - 0.02 in Snow Light Snow
7:37 PM - - - N/A% 29.41 in 5.0 mi SW 8.1 mph - 0.01 in   Unknown
7:51 PM - - - N/A% 29.41 in 5.0 mi SW 8.1 mph - 0.01 in   Unknown
7:59 PM - - - N/A% 29.40 in 6.0 mi SW 5.8 mph - 0.00 in   Unknown
8:47 PM - - - N/A% 29.40 in 10.0 mi SW 9.2 mph - 0.00 in   Overcast
8:51 PM - - - N/A% 29.40 in 9.0 mi SW 10.4 mph - 0.00 in   Overcast
9:51 PM - - - N/A% 29.40 in 10.0 mi WSW 10.4 mph 16.1 mph 0.00 in   Overcast
10:44 PM - - - N/A% 29.41 in 6.0 mi WSW 9.2 mph 21.9 mph 0.01 in   Overcast
10:51 PM - - - N/A% 29.42 in 6.0 mi WSW 10.4 mph - 0.01 in   Unknown
11:48 PM 1.4 °F -14.5 °F - N/A% 29.41 in 2.5 mi West 10.4 mph 18.4 mph 0.00 in Snow Light Snow
11:51 PM 1.0 °F -17.3 °F - N/A% 29.49 in 2.5 mi West 13.8 mph 23.0 mph 0.00 in Snow Light Snow
11:59 PM - - - N/A% 29.41 in 7.0 mi WSW 16.1 mph 26.5 mph 0.00 in   Unknown